EW0859 Weather Reports


time (UTC)temp
C
wind
direction
speed
KPH
gust
KPH
rain 1hr
cm
rain 24hr
cm
rain mn
cm
humidity
%
barometer
mb
20260508014600 19 271 29.0 41.8 0.00 0.00 0.00 21 1010.4
20260508013104 20 265 30.6 45.1 0.00 0.00 0.00 19 1010.6
20260508011556 20 294 29.0 45.1 0.00 0.00 0.00 19 1010.6
20260508010054 20 313 29.0 41.8 0.00 0.00 0.00 21 1010.7
20260508004548 21 294 29.0 45.1 0.00 0.00 0.00 22 1010.8
20260508003047 21 287 27.4 45.1 0.00 0.00 0.00 18 1010.8
20260508001554 21 273 22.5 40.2 0.00 0.00 0.00 22 1010.8
20260508000048 21 253 25.7 38.6 0.00 0.00 0.00 23 1010.9
20260507234545 22 258 25.7 40.2 0.00 0.00 0.00 21 1010.7
20260507233044 21 249 29.0 45.1 0.00 0.00 0.00 18 1010.8
20260507231545 22 267 30.6 41.8 0.00 0.00 0.00 19 1011.0
20260507230043 22 284 32.2 43.5 0.00 0.00 0.00 20 1011.0
20260507224540 22 274 25.7 40.2 0.00 0.00 0.00 20 1011.1
20260507223040 21 268 22.5 35.4 0.00 0.00 0.00 29 1011.2
20260507221537 21 269 24.1 33.8 0.00 0.00 0.00 28 1011.4
20260507220036 21 250 20.9 32.2 0.00 0.00 0.00 25 1011.6
20260507214539 21 247 27.4 35.4 0.00 0.00 0.00 22 1011.7
20260507213042 22 304 22.5 33.8 0.00 0.00 0.00 26 1011.8
20260507211544 21 263 22.5 33.8 0.00 0.00 0.00 30 1011.9
20260507210032 21 293 19.3 33.8 0.00 0.00 0.00 28 1012.1
20260507204528 21 267 22.5 32.2 0.00 0.00 0.00 27 1012.3
20260507203026 21 277 20.9 33.8 0.00 0.00 0.00 21 1012.4
20260507201535 20 240 19.3 29.0 0.00 0.00 0.00 30 1012.6
20260507200028 20 245 16.1 30.6 0.00 0.00 0.00 32 1012.7
20260507194521 19 267 17.7 32.2 0.00 0.00 0.00 37 1012.8
20260507193022 18 252 19.3 30.6 0.00 0.00 0.00 37 1012.8
20260507191522 18 275 19.3 27.4 0.00 0.00 0.00 40 1012.9
20260507190017 18 281 20.9 29.0 0.00 0.00 0.00 41 1012.9
20260507184513 17 263 20.9 30.6 0.00 0.00 0.00 44 1013.1
20260507183011 17 278 19.3 27.4 0.00 0.00 0.00 46 1013.2
20260507181508 16 306 16.1 29.0 0.00 0.00 0.00 50 1013.4
20260507180017 16 307 17.7 29.0 0.00 0.00 0.00 49 1013.6
20260507174512 15 240 12.9 29.0 0.00 0.00 0.00 52 1013.7
20260507173006 15 259 16.1 30.6 0.00 0.00 0.00 51 1013.7
20260507171503 15 272 17.7 25.7 0.00 0.00 0.00 52 1013.6
20260507170101 15 277 22.5 32.2 0.00 0.00 0.00 52 1013.6
20260507164557 13 232 17.7 33.8 0.00 0.00 0.00 56 1013.8
20260507163058 13 251 22.5 33.8 0.00 0.00 0.00 54 1013.7
20260507161558 13 274 22.5 33.8 0.00 0.00 0.00 55 1014.0
20260507160055 13 275 22.5 30.6 0.00 0.00 0.00 57 1014.1
20260507154555 12 265 25.7 37.0 0.00 0.00 0.00 59 1014.1
20260507153102 12 276 27.4 37.0 0.00 0.00 0.00 61 1013.9
20260507151552 12 270 27.4 40.2 0.00 0.00 0.00 60 1014.0
20260507150055 12 283 24.1 35.4 0.00 0.00 0.00 60 1014.0
20260507144548 12 257 20.9 30.6 0.00 0.00 0.00 63 1013.9
20260507143100 11 268 25.7 38.6 0.00 0.00 0.00 67 1013.9
20260507141548 11 264 20.9 29.0 0.00 0.00 0.00 73 1013.8
20260507140044 10 263 20.9 32.2 0.00 0.00 0.00 74 1013.6
20260507134543 10 271 16.1 22.5 0.00 0.00 0.00 73 1013.7
20260507133047 9 284 11.3 24.1 0.00 0.00 0.00 75 1013.6
20260507131548 9 264 17.7 22.5 0.00 0.00 0.00 75 1013.4
20260507130057 9 257 16.1 24.1 0.00 0.00 0.00 76 1013.4
20260507124540 9 273 16.1 24.1 0.00 0.00 0.00 77 1013.5
20260507123038 9 273 14.5 22.5 0.00 0.00 0.00 78 1013.5
20260507121534 10 255 19.3 29.0 0.00 0.00 0.00 77 1013.4
20260507120033 10 263 25.7 32.2 0.00 0.00 0.00 76 1013.5
20260507114528 10 271 16.1 22.5 0.00 0.00 0.00 76 1013.6
20260507113027 11 271 20.9 29.0 0.00 0.00 0.00 75 1013.5
20260507111523 11 280 22.5 30.6 0.00 0.00 0.00 74 1013.4
20260507110022 11 277 16.1 24.1 0.00 0.00 0.00 75 1013.4
20260507104519 11 253 16.1 32.2 0.00 0.00 0.00 75 1013.2
20260507103016 11 256 22.5 32.2 0.00 0.00 0.00 74 1013.1
20260507101517 12 254 20.9 32.2 0.00 0.00 0.00 74 1012.9
20260507100016 12 247 16.1 30.6 0.00 0.00 0.00 75 1012.9
20260507094515 12 246 22.5 35.4 0.00 0.00 0.00 75 1012.7
20260507093015 12 240 27.4 41.8 0.00 0.00 0.00 76 1012.6
20260507091510 12 240 30.6 41.8 0.00 0.00 0.00 75 1012.7
20260507090010 12 237 30.6 49.9 0.00 0.00 0.00 74 1012.9
20260507084524 13 249 37.0 51.5 0.00 0.00 0.00 73 1012.6
20260507083006 13 255 33.8 48.3 0.00 0.00 0.00 74 1012.2
20260507081504 13 253 37.0 49.9 0.00 0.00 0.00 73 1012.4
20260507080003 13 263 30.6 40.2 0.00 0.00 0.00 72 1012.5
20260507074605 13 224 20.9 32.2 0.00 0.00 0.00 73 1012.6
20260507073055 13 239 22.5 32.2 0.00 0.00 0.00 72 1012.8
20260507071559 13 223 17.7 30.6 0.00 0.00 0.00 72 1013.0
20260507064555 13 242 14.5 25.7 0.00 0.00 0.00 71 1013.1
20260507063049 14 229 14.5 25.7 0.00 0.00 0.00 70 1013.1
20260507061549 14 221 17.7 29.0 0.00 0.00 0.00 70 1013.1
20260507060047 14 219 14.5 29.0 0.00 0.00 0.00 70 1013.0
20260507054606 14 223 14.5 30.6 0.00 0.00 0.00 69 1012.9
20260507053056 14 213 19.3 30.6 0.00 0.00 0.00 68 1012.9
20260507051550 14 228 24.1 32.2 0.00 0.00 0.00 67 1012.8
20260507050050 14 242 22.5 38.6 0.00 0.00 0.00 69 1012.9
20260507044552 15 272 25.7 43.5 0.00 0.00 0.00 67 1012.6
20260507043044 15 253 30.6 46.7 0.00 0.00 0.00 67 1012.6
20260507041557 15 265 29.0 43.5 0.00 0.00 0.00 67 1012.7
20260507040043 15 242 29.0 38.6 0.00 0.00 0.00 67 1012.6
20260507034542 15 256 24.1 41.8 0.00 0.00 0.00 68 1012.4
20260507033043 15 269 30.6 43.5 0.00 0.00 0.00 67 1012.2
20260507031542 16 244 29.0 41.8 0.00 0.00 0.00 67 1012.1
20260507030041 16 252 32.2 48.3 0.00 0.00 0.00 65 1012.1
20260507024540 16 246 27.4 40.2 0.00 0.00 0.00 65 1012.3
20260507023040 16 245 29.0 45.1 0.00 0.00 0.00 66 1012.3
20260507021540 16 236 33.8 51.5 0.00 0.00 0.00 65 1012.0
20260507020050 16 240 37.0 51.5 0.00 0.00 0.00 65 1011.8